Weather History for Cleveland, OH

Change the Weather History Date:

Sunday, January 20, 2013

  Actual Average Record
Temperature  
Mean Temperature 34 °F 28 °F  
Max Temperature 47 °F 34 °F 65 °F (1906)
Min Temperature 20 °F 22 °F -18 °F (1985)
Degree Days  
Heating Degree Days 31 37  
Month to date heating degree days 627 739  
Since 1 July heating degree days 2708 2846  
Cooling Degree Days 0 0  
Month to date cooling degree days 0 0  
Year to date cooling degree days 0 0  
Moisture  
Dew Point 15 °F    
Average Humidity 59    
Maximum Humidity 68    
Minimum Humidity 49    
Precipitation  
Precipitation T in 0.08 in 0.69 in (1954)
Month to date precipitation 0.94 1.84  
Year to date precipitation 0.94 1.84  
Snow  
Snow T in 0.60 in - ()
Month to date snowfall 0.1 12.0  
Since 1 July snowfall 15.6 30.6  
Snow Depth 0.00 in    
Sea Level Pressure  
Sea Level Pressure 30.05 in    
Wind  
Wind Speed 19 mph (West)    
Max Wind Speed 40 mph    
Max Gust Speed 49 mph    
Visibility 9 miles    
Events Snow    
T = Trace of Precipitation, MM = Missing Value Source: NWS Daily Summary

Daily Weather History Graph

Daily Weather History Graph

Search for Another Location

Airport:

Trip Planner

Search our weather history database for the weather conditions in past years. The results will help you decide how hot, cold, wet, or windy it might be!

Date:

Astronomy

Jan. 20, 2013 Rise Set
Actual Time 7:48 AM EST 5:29 PM EST
Civil Twilight 7:18 AM EST 5:59 PM EST
Nautical Twilight 6:44 AM EST 6:32 PM EST
Astronomical Twilight 6:11 AM EST 7:05 PM EST
Moon 12:29 PM EST 2:19 AM EST
Length of Visible Light 10h 40m
Length of Day
9h 40m
Waxing Gibbous, 66% of the Moon is Illuminated
Jan 20
Waxing Gibbous
Jan 26
Full
Feb 3
Last Quarter
Feb 10
New
Feb 17
First Quarter

Hourly Weather History & Observations

Time (EST) Temp. Windchill Dew Point Humidity Pressure Visibility Wind Dir Wind Speed Gust Speed Precip Events Conditions
12:51 AM 46.0 °F 37.0 °F 30.9 °F 56% 29.69 in 10.0 mi SW 27.6 mph 38.0 mph N/A   Scattered Clouds
1:51 AM 45.0 °F 36.4 °F 32.0 °F 60% 29.69 in 10.0 mi SW 23.0 mph 35.7 mph N/A   Partly Cloudy
2:51 AM 45.0 °F 35.8 °F 33.1 °F 63% 29.71 in 10.0 mi West 26.5 mph 46.0 mph N/A   Mostly Cloudy
3:51 AM 42.1 °F 31.3 °F 28.0 °F 58% 29.74 in 10.0 mi WSW 29.9 mph 43.7 mph N/A   Mostly Cloudy
4:51 AM 39.0 °F 26.6 °F 24.1 °F 55% 29.79 in 10.0 mi West 33.4 mph 47.2 mph N/A   Overcast
5:51 AM 32.0 °F 17.9 °F 18.0 °F 56% 29.87 in 10.0 mi WNW 28.8 mph 46.0 mph N/A   Mostly Cloudy
6:51 AM 28.9 °F 14.5 °F 16.0 °F 58% 29.94 in 10.0 mi West 25.3 mph 35.7 mph N/A   Scattered Clouds
7:51 AM 28.0 °F 15.3 °F 16.0 °F 61% 29.99 in 10.0 mi West 18.4 mph 28.8 mph N/A   Overcast
8:51 AM 26.6 °F 13.8 °F 15.8 °F 64% 30.04 in 9.0 mi West 17.3 mph 32.2 mph N/A Snow Light Snow
9:51 AM 23.0 °F 8.0 °F 14.0 °F 68% 30.12 in 5.0 mi West 20.7 mph 36.8 mph 0.00 in Snow Light Snow
9:58 AM 23.0 °F 9.6 °F 14.0 °F 68% 30.09 in 4.0 mi West 16.1 mph 33.4 mph 0.00 in Snow Light Snow
10:51 AM 21.9 °F 5.5 °F 12.0 °F 66% 30.17 in 6.0 mi WNW 24.2 mph 31.1 mph 0.00 in Snow Light Snow
11:51 AM 23.0 °F 8.7 °F 10.9 °F 60% 30.17 in 9.0 mi WNW 18.4 mph 25.3 mph 0.00 in Snow Light Snow
12:51 PM 23.0 °F 8.7 °F 12.0 °F 63% 30.17 in 9.0 mi West 18.4 mph 27.6 mph 0.00 in Snow Light Snow
1:51 PM 24.1 °F 11.5 °F 9.0 °F 53% 30.17 in 9.0 mi West 15.0 mph - 0.00 in Snow Light Snow
2:51 PM 25.0 °F 13.6 °F 10.0 °F 53% 30.15 in 10.0 mi West 12.7 mph - 0.00 in   Mostly Cloudy
3:51 PM 24.8 °F 12.4 °F 10.4 °F 54% 30.15 in 10.0 mi West 15.0 mph - N/A   Overcast
4:51 PM 24.1 °F 13.7 °F 10.9 °F 57% 30.18 in 10.0 mi West 10.4 mph - N/A   Overcast
5:51 PM 24.8 °F 12.4 °F 10.4 °F 54% 30.16 in 10.0 mi West 15.0 mph - N/A   Overcast
6:51 PM 24.1 °F 11.5 °F 10.0 °F 55% 30.20 in 10.0 mi West 15.0 mph 21.9 mph N/A   Overcast
7:51 PM 23.0 °F 11.1 °F 10.9 °F 60% 30.20 in 9.0 mi West 12.7 mph - 0.00 in Snow Light Snow
8:51 PM 23.0 °F 9.6 °F 10.0 °F 58% 30.20 in 9.0 mi West 16.1 mph - 0.00 in Snow Light Snow
9:51 PM 21.9 °F 10.4 °F 9.0 °F 58% 30.20 in 9.0 mi WSW 11.5 mph - 0.00 in Snow Light Snow
10:51 PM 21.0 °F 10.6 °F 10.0 °F 63% 30.20 in 9.0 mi WSW 9.2 mph - 0.00 in Snow Light Snow
11:51 PM 19.9 °F 7.9 °F 10.9 °F 68% 30.19 in 9.0 mi WSW 11.5 mph - 0.00 in Snow Light Snow